Weather History for Wiarton, ON

Change the Weather History Date:

Thursday, April 10, 2014

  Actual Average Record
Temperature  
Mean Temperature 50 °F -  
Max Temperature 60 °F 53 °F 69 °F (2011)
Min Temperature 40 °F 35 °F 21 °F (1997)
Degree Days  
Heating Degree Days 15    
Moisture  
Dew Point 34 °F    
Average Humidity 63    
Maximum Humidity 93    
Minimum Humidity 32    
Precipitation  
Precipitation 0.12 in 0.09 in - ()
Sea Level Pressure  
Sea Level Pressure 29.71 in    
Wind  
Wind Speed 14 mph ()    
Max Wind Speed 26 mph    
Max Gust Speed 34 mph    
Visibility 13.1 miles    
Events Rain    
Averages and records for this station are not official NWS values.
T = Trace of Precipitation, MM = Missing Value Source: Averaged Metar Reports

Daily Weather History Graph

Daily Weather History Graph

Search for Another Location

Airport:

Trip Planner

Search our weather history database for the weather conditions in past years. The results will help you decide how hot, cold, wet, or windy it might be!

Date:

Astronomy

Apr. 10, 2014 Rise Set
Actual Time 6:48 AM EDT 8:03 PM EDT
Civil Twilight 6:18 AM EDT 8:33 PM EDT
Nautical Twilight 5:42 AM EDT 9:09 PM EDT
Astronomical Twilight 5:04 AM EDT 9:48 PM EDT
Moon 3:35 PM EDT (4/10) 4:22 AM EDT (4/10)
Length of Visible Light 14h 14m
Length of Day
13h 14m
Waxing Gibbous, 79% of the Moon is Illuminated
Apr 10
Waxing Gibbous
Apr 15
Full
Apr 22
Last Quarter
Apr 29
New
May 6
First Quarter

Hourly Weather History & Observations

Time (EDT) Temp. Windchill Dew Point Humidity Pressure Visibility Wind Dir Wind Speed Gust Speed Precip Events Conditions
12:00 AM 41.0 °F 32.5 °F 26.6 °F 57% 29.85 in 15.0 mi South 17.3 mph 25.3 mph N/A   Partly Cloudy
1:00 AM 41.0 °F 32.8 °F 26.6 °F 57% 29.85 in 15.0 mi South 16.1 mph 23.0 mph N/A   Partly Cloudy
2:00 AM 40 °F - 28 °F 49% 29.83 in 15 mi South 16.1 mph - -  
2:00 AM 41.0 °F 32.8 °F 28.4 °F 61% 29.83 in 15.0 mi South 16.1 mph 23.0 mph N/A   Clear
3:00 AM 42.8 °F 34.5 °F 28.4 °F 57% 29.80 in 15.0 mi South 18.4 mph 27.6 mph N/A   Mostly Cloudy
4:00 AM 41.0 °F 32.5 °F 28.4 °F 61% 29.77 in 15.0 mi South 17.3 mph 25.3 mph N/A   Mostly Cloudy
5:00 AM 41.0 °F 32.5 °F 30.2 °F 65% 29.75 in 15.0 mi South 17.3 mph 26.5 mph N/A   Partly Cloudy
6:00 AM 42.8 °F 34.8 °F 30.2 °F 61% 29.72 in 15.0 mi South 17.3 mph 25.3 mph N/A   Mostly Cloudy
7:00 AM 42.8 °F 35.8 °F 32.0 °F 66% 29.70 in 15.0 mi South 13.8 mph 19.6 mph N/A   Mostly Cloudy
8:00 AM 45 °F - 32 °F 49% 29.69 in 15 mi South 17.3 mph - -   Mostly Cloudy
8:00 AM 44.6 °F 37.2 °F 32.0 °F 61% 29.69 in 15.0 mi South 17.3 mph 23.0 mph N/A   Mostly Cloudy
9:00 AM 50.0 °F - 33.8 °F 54% 29.66 in 15.0 mi South 21.9 mph 28.8 mph N/A   Mostly Cloudy
10:00 AM 53.6 °F - 35.6 °F 51% 29.63 in 15.0 mi SSW 23.0 mph 28.8 mph N/A   Mostly Cloudy
11:00 AM 57.2 °F - 35.6 °F 44% 29.62 in 15.0 mi SSW 25.3 mph 34.5 mph N/A   Mostly Cloudy
12:00 PM 59.0 °F - 35.6 °F 42% 29.60 in 15.0 mi SW 26.5 mph 32.2 mph N/A   Mostly Cloudy
1:00 PM 59.0 °F - 37.4 °F 45% 29.60 in 15.0 mi SW 20.7 mph 28.8 mph N/A   Overcast
2:00 PM 60 °F - 38 °F 32% 29.59 in 15 mi SW 20.7 mph - -   Overcast
2:00 PM 59.0 °F - 37.4 °F 45% 29.59 in 15.0 mi SW 20.7 mph 28.8 mph N/A   Overcast
3:00 PM 57.2 °F - 39.2 °F 51% 29.61 in 15.0 mi WSW 18.4 mph 26.5 mph N/A   Overcast
3:31 PM - - - N/A% - 15.0 mi WSW 13.8 mph 20.7 mph N/A Rain Light Rain
4:00 PM 44.6 °F 39.7 °F 35.6 °F 71% 29.63 in 10.0 mi WSW 9.2 mph 23.0 mph N/A Rain Light Rain
5:00 PM 41.0 °F 36.4 °F 37.4 °F 87% 29.70 in 4.0 mi WNW 6.9 mph - N/A Rain Light Rain
6:00 PM 41.0 °F - 37.4 °F 87% 29.69 in 6.0 mi Calm Calm - N/A Rain Light Rain
6:42 PM - - - N/A% - 6.0 mi South 5.8 mph - N/A   Overcast
7:00 PM 41.0 °F 37.1 °F 37.4 °F 87% 29.71 in 6.0 mi South 5.8 mph - N/A   Overcast
8:00 PM 42 °F - 38 °F 83% 29.73 in 7 mi SSW 9.2 mph - -   Partly Cloudy
8:00 PM 41.0 °F 35.2 °F 39.2 °F 93% 29.73 in 8.0 mi SSW 9.2 mph - N/A   Overcast
9:00 PM 41.0 °F 34.3 °F 37.4 °F 87% 29.76 in 15.0 mi SSW 11.5 mph - N/A   Scattered Clouds
10:00 PM 41.0 °F 34.3 °F 37.4 °F 87% 29.79 in 15.0 mi SSW 11.5 mph - N/A   Mostly Cloudy
11:00 PM 42.8 °F 37.5 °F 39.2 °F 87% 29.80 in 15.0 mi SW 9.2 mph - N/A   Scattered Clouds